GFSSGP_925_spd_003.txt.gz
Wind_Speed
15 16 12 3 2 2 3 4 4 7 2 2 3 4 6 2 4 9 3 13 12 34 36 35 33 29 26 23 20 18 16 14 13 12 10 9 9 9 10 9 8 8 7 6 6 6 6 6 7
20 17 2 2 3 3 3 5 7 2 7 13 7 8 7 9 3 6 1 20 19 35 34 35 35 30 27 25 22 20 18 16 16 15 14 13 12 12 13 12 11 10 10 10 10 8 8 8 8
16 5 2 2 3 6 3 7 3 7 11 4 3 3 2 4 4 3 5 26 21 34 31 35 35 32 28 26 24 22 19 19 18 17 16 16 16 16 16 16 15 14 13 13 13 12 11 10 9
6 4 3 4 12 8 6 4 7 11 1 4 2 7 4 4 1 3 10 27 22 32 27 30 33 33 29 27 26 23 21 20 19 18 17 17 18 19 18 18 18 17 16 16 15 14 15 15 12
2 2 4 5 11 6 10 16 9 9 6 3 2 3 5 3 8 6 14 26 25 30 29 27 33 34 30 28 26 24 22 20 18 17 17 18 19 18 18 18 18 18 20 18 17 16 17 18 16
3 1 4 10 13 10 9 13 7 8 6 3 3 3 6 4 8 11 17 26 23 28 32 27 32 34 31 27 26 24 21 18 17 15 15 15 16 15 15 15 17 17 17 18 17 17 19 19 18
4 4 6 10 15 12 9 7 6 6 4 2 1 4 3 6 11 10 17 23 25 26 30 27 27 33 31 27 25 23 20 17 15 13 12 15 15 13 14 15 15 15 16 16 16 18 20 20 18
2 3 5 7 9 10 2 3 3 1 6 2 2 3 7 6 3 12 15 21 17 21 25 27 27 27 26 23 26 23 20 17 16 13 13 12 10 11 12 14 14 15 14 17 19 19 19 20 21
4 7 13 16 12 10 1 4 2 4 9 5 4 10 12 6 4 8 13 17 17 19 24 27 27 27 24 21 21 22 19 18 17 14 12 10 8 8 9 12 12 10 10 11 14 17 18 20 19
8 12 20 16 15 13 10 5 10 8 17 19 16 15 12 8 8 12 19 23 25 25 27 31 32 28 27 21 19 17 15 14 14 13 11 9 9 9 10 10 11 10 10 11 12 13 13 15 16
10 20 26 21 18 10 18 17 13 16 24 22 19 20 22 15 13 17 23 28 36 30 27 30 31 29 26 19 18 16 15 14 13 14 14 12 12 11 11 11 9 9 11 11 10 11 11 10 14
15 23 24 25 17 13 20 17 18 21 28 22 23 19 20 19 15 17 23 30 31 31 34 32 31 29 26 20 20 17 15 14 12 12 15 14 14 14 14 13 11 10 10 10 9 9 9 10 11
22 22 20 22 21 20 18 20 20 28 27 22 22 19 19 18 17 23 29 29 30 29 29 26 31 33 32 28 21 19 17 13 12 12 15 16 16 16 16 15 15 13 12 11 10 9 8 8 9
11 24 23 18 16 21 21 26 19 25 22 20 19 20 20 18 19 19 21 30 28 34 28 32 34 32 31 28 25 22 17 14 13 14 15 17 17 16 16 16 17 18 16 14 10 8 8 8 8
14 15 13 14 15 14 9 26 20 29 19 21 24 19 19 18 20 18 25 27 35 36 25 28 31 33 34 30 25 21 16 14 14 16 17 18 19 19 19 18 17 19 20 14 13 10 8 7 8
10 11 18 12 19 12 13 32 20 18 13 17 18 16 16 19 18 21 24 28 25 24 27 29 27 31 32 30 26 19 15 15 16 17 18 19 20 20 18 17 15 16 16 14 11 11 9 9 9
11 14 15 13 11 5 16 21 17 10 8 15 18 18 18 18 18 25 22 23 21 26 24 27 28 31 32 29 22 18 15 16 16 17 15 17 17 16 17 16 15 11 11 11 11 11 10 9 9
15 15 14 16 11 17 23 26 19 18 14 18 19 17 18 20 23 23 18 17 19 23 25 29 28 33 33 26 20 16 15 16 16 16 14 13 11 11 11 13 11 10 9 8 9 11 9 9 9
18 20 25 22 15 15 19 19 14 16 18 20 20 19 20 20 20 14 11 13 16 21 27 30 31 33 31 22 15 10 11 12 13 12 11 10 9 7 8 8 10 10 9 9 9 8 9 10 8
22 23 21 14 12 10 17 20 16 17 22 22 19 20 21 19 18 8 5 11 20 24 26 32 34 34 28 20 14 8 8 8 8 9 8 6 6 5 7 8 7 9 7 8 9 10 10 10 9
25 25 23 19 15 14 17 22 19 20 11 16 17 19 20 18 16 6 6 10 13 21 26 30 30 30 25 18 15 9 7 6 5 3 2 2 4 4 5 7 6 5 6 7 8 10 11 11 9
25 24 20 18 11 14 3 14 17 19 22 22 21 17 17 16 11 5 8 10 14 17 23 27 27 26 23 19 12 8 6 3 1 1 1 1 1 2 4 7 7 5 5 6 6 9 9 9 9
16 11 15 16 17 16 17 11 12 14 22 24 20 19 15 9 6 6 10 13 17 22 25 24 24 23 21 17 11 8 5 2 0 0 1 2 3 4 5 6 6 5 5 4 7 9 9 9 9
12 7 8 6 7 12 15 11 14 14 20 18 14 13 4 6 2 8 12 18 21 24 23 22 22 19 18 15 11 8 4 3 1 0 1 2 4 6 5 7 6 5 4 6 8 8 9 7 6
20 12 5 6 8 9 16 13 18 14 19 18 19 11 5 1 8 12 15 16 24 25 23 22 21 18 15 13 10 7 4 3 1 1 1 3 7 7 7 8 6 5 5 6 7 8 8 7 6
24 20 8 7 5 10 5 9 7 16 19 22 17 12 2 6 9 12 15 17 25 25 23 22 20 17 14 12 9 7 4 3 2 2 4 6 9 9 9 8 5 5 4 4 4 7 6 4 3
17 18 15 6 2 7 3 6 11 18 14 11 10 6 6 9 11 13 16 21 24 24 23 22 19 15 14 11 10 7 5 3 3 5 6 8 11 9 8 6 5 4 3 2 4 4 5 5 5
19 17 10 9 8 8 8 8 8 14 8 8 8 7 9 11 13 15 16 19 22 22 21 20 18 15 12 10 9 7 6 5 6 7 8 9 9 7 6 4 4 3 3 3 4 5 4 4 4
11 16 7 10 7 6 4 5 11 16 12 8 3 8 10 12 13 15 16 20 21 20 19 18 15 12 11 9 8 8 7 8 7 7 7 8 7 7 4 3 4 3 5 4 4 4 4 4 4
21 20 20 9 9 10 3 6 2 8 7 6 2 8 13 12 14 15 16 19 19 20 19 17 14 12 10 10 7 7 7 8 8 7 7 7 8 7 5 4 5 5 6 6 5 6 6 7 7

GFSSGP_925_spd_006.txt.gz
Wind_Speed
14 14 12 7 6 6 10 4 6 6 5 3 5 7 6 10 10 7 3 9 8 24 27 33 33 29 26 23 20 17 16 14 11 10 9 8 8 8 8 9 8 7 6 6 6 6 6 6 5
15 13 8 3 7 9 9 9 8 1 5 8 10 12 12 14 5 5 5 12 13 23 26 29 33 29 27 24 21 18 16 15 13 12 12 11 11 10 10 10 10 10 9 9 8 8 7 7 7
15 9 6 5 9 11 5 8 4 2 4 2 3 3 6 4 1 4 2 16 17 22 26 28 33 32 28 24 21 19 18 16 15 14 14 14 14 14 13 12 12 13 13 12 11 11 11 9 8
14 8 5 9 13 11 10 4 3 5 4 2 3 7 3 4 2 1 3 17 17 21 23 26 31 32 29 25 22 21 19 17 16 15 15 15 15 16 16 15 15 16 16 16 15 14 12 10 11
10 5 11 13 17 13 9 13 12 10 5 6 2 4 5 1 2 3 5 17 18 22 22 23 31 31 30 27 24 22 21 19 16 16 16 15 15 16 18 18 18 18 19 19 19 17 15 14 12
8 6 11 14 18 11 11 12 13 12 10 7 8 5 9 7 4 4 6 14 16 20 21 21 27 32 32 29 26 24 22 20 17 16 15 14 14 17 18 16 16 16 17 18 17 17 15 15 14
14 10 16 17 17 14 11 7 12 12 8 10 4 11 6 1 13 5 5 12 19 18 22 20 21 30 34 31 27 25 23 21 18 16 15 14 15 16 16 16 16 16 16 16 16 16 16 16 15
10 11 19 16 16 16 4 6 5 7 9 5 5 7 6 11 9 8 8 11 18 19 21 23 22 24 26 26 28 25 22 20 18 17 15 14 16 16 15 16 15 14 14 13 15 16 16 16 15
15 11 15 20 20 17 12 11 4 3 11 13 9 14 13 16 11 11 11 13 17 22 24 24 24 24 24 23 20 24 21 19 18 16 16 14 12 12 11 12 15 14 10 10 10 11 15 16 17
16 15 24 21 22 19 22 14 14 10 16 19 18 19 13 13 14 15 17 15 17 25 26 26 25 24 23 22 19 19 18 16 15 15 13 12 12 11 11 12 14 12 11 10 11 11 11 10 13
20 27 24 24 25 23 21 22 22 19 19 21 20 22 20 20 19 17 20 20 20 23 28 28 26 23 24 23 22 19 18 16 15 15 14 13 12 11 11 11 10 10 10 10 10 10 10 11 11
29 30 25 26 27 23 21 25 24 23 22 24 22 22 23 21 18 16 20 20 19 19 27 28 28 26 25 23 22 19 18 16 14 13 14 13 12 12 12 12 11 11 11 10 10 10 9 10 12
33 28 26 23 24 25 23 26 27 28 21 26 23 21 19 19 21 23 21 22 21 20 23 29 29 27 25 24 21 21 19 17 14 12 12 13 13 13 13 14 13 14 13 12 12 11 10 9 10
26 27 31 27 24 22 23 27 28 28 17 28 23 23 20 20 19 20 19 21 19 23 23 27 30 28 26 26 23 22 19 15 13 12 12 13 14 14 15 16 16 17 15 15 12 12 11 10 9
24 27 28 21 24 26 20 31 30 27 21 26 23 20 18 18 19 17 20 21 21 19 19 27 29 29 28 26 24 21 18 16 13 12 12 12 13 15 17 18 17 17 17 16 14 14 13 12 11
22 27 27 25 20 18 18 36 27 19 21 20 17 17 17 18 19 22 21 20 22 19 19 24 27 29 27 27 25 21 18 14 13 12 11 12 15 17 19 18 17 15 14 13 16 15 15 12 12
25 26 31 30 27 26 26 39 29 26 16 16 16 18 17 19 20 25 25 24 24 20 19 25 27 29 29 27 23 20 16 15 12 11 11 11 14 16 17 16 14 13 14 13 15 15 14 12 13
26 26 27 30 23 22 26 31 27 24 24 21 21 19 20 19 22 26 23 21 21 16 18 22 27 28 28 25 22 18 15 13 11 10 11 12 13 14 15 13 11 13 13 13 14 13 13 13 9
25 25 30 24 24 24 24 29 29 27 19 23 23 19 21 20 22 22 20 14 13 13 17 23 26 29 30 28 24 19 16 13 10 9 10 12 13 13 12 10 10 10 12 15 13 12 13 12 11
27 29 29 24 24 20 20 26 26 24 25 25 26 22 23 19 19 15 11 9 11 13 16 18 23 29 28 24 19 16 12 9 7 7 9 10 11 11 10 10 10 10 11 12 12 12 12 12 13
29 29 26 25 22 19 22 25 27 27 30 28 23 21 19 20 21 15 7 8 10 13 16 19 22 25 24 22 18 13 9 5 6 7 7 6 8 8 8 8 8 8 10 10 11 11 11 13 13
30 25 23 22 19 19 18 21 23 21 25 22 23 22 22 21 16 11 6 8 11 15 19 23 26 25 21 19 15 12 7 6 2 4 4 5 6 5 5 6 6 6 7 7 6 7 9 9 11
26 15 20 20 19 20 23 14 22 23 24 23 22 23 21 18 11 9 9 12 14 19 23 26 27 23 20 17 14 12 6 5 4 3 4 5 5 4 4 5 5 6 6 4 3 5 7 9 6
22 14 18 15 14 16 21 20 21 19 22 21 14 11 9 8 4 7 11 16 19 23 26 27 25 21 19 16 13 8 7 4 3 3 6 5 5 5 5 6 6 5 4 4 5 6 6 5 6
24 21 10 11 12 14 15 12 20 17 20 20 15 5 7 4 9 13 15 15 22 27 27 25 24 21 18 15 13 10 6 5 3 4 3 4 6 8 7 6 6 4 3 5 5 7 6 7 6
29 25 12 15 12 13 7 9 10 11 15 13 12 12 3 5 10 14 16 18 25 26 26 24 22 20 17 15 12 9 7 5 3 2 4 5 9 8 8 6 5 3 3 3 4 5 7 7 7
31 25 23 14 3 6 7 9 14 20 18 15 8 5 5 9 13 16 18 19 25 25 23 23 21 18 16 15 12 9 7 5 5 6 7 8 8 9 7 5 3 2 2 2 4 7 9 6 4
26 24 20 13 14 15 7 10 10 13 10 7 10 7 10 13 15 17 17 18 23 23 22 21 18 17 16 14 13 10 7 8 8 8 7 9 9 8 7 4 2 1 1 2 4 4 4 5 6
17 22 19 15 10 8 4 4 11 14 11 3 5 9 15 16 17 17 17 21 23 22 21 20 17 17 16 13 12 9 7 8 8 8 9 9 9 9 7 5 3 2 3 3 3 1 3 6 6
26 18 24 13 16 13 7 7 5 5 6 4 4 11 16 17 18 19 18 20 22 21 21 19 16 16 15 13 11 9 7 7 8 8 9 8 9 8 6 5 4 3 2 2 2 6 5 5 6

GFSSGP_925_spd_009.txt.gz
Wind_Speed
10 10 9 9 7 7 14 13 11 4 9 2 3 6 13 13 9 5 8 6 8 18 24 30 30 27 24 22 19 16 13 11 8 6 5 5 4 4 4 5 5 5 5 4 4 4 5 5 5
12 11 9 7 8 13 13 12 10 5 8 6 9 9 11 9 7 5 6 7 10 20 24 28 31 29 25 22 20 17 14 12 10 8 7 7 6 6 6 7 7 7 7 7 6 7 8 7 7
11 13 8 7 13 14 8 5 7 6 2 5 6 1 8 8 5 6 8 4 13 19 22 26 30 30 26 23 21 18 15 13 12 11 10 9 9 10 10 9 9 10 10 10 9 10 11 10 9
13 10 8 11 18 15 13 5 6 8 8 4 7 11 2 5 3 7 4 6 14 19 22 25 29 31 27 25 22 19 16 14 14 12 11 11 11 13 13 12 11 12 13 13 13 13 13 11 9
19 9 13 15 19 20 9 9 12 11 9 7 3 11 7 17 9 4 2 7 11 15 18 20 27 31 29 27 23 20 18 16 15 14 12 11 12 13 12 13 13 14 16 17 16 18 17 13 11
10 12 14 15 20 18 10 7 11 14 13 10 6 12 8 9 8 5 2 6 11 15 18 20 24 28 30 29 25 23 20 18 16 14 12 12 12 13 14 15 16 14 15 15 15 16 14 15 12
17 13 17 20 19 18 5 4 11 14 12 12 11 5 10 7 8 6 6 8 10 15 19 19 18 26 31 30 28 25 22 20 18 15 14 12 13 13 16 15 15 15 15 15 15 14 14 14 14
15 14 23 21 18 21 16 2 13 9 13 4 1 9 13 14 10 12 16 11 13 15 18 19 19 19 22 24 30 27 24 21 18 17 15 14 14 15 17 17 16 15 13 13 14 14 14 14 15
17 16 18 24 22 19 20 15 16 1 10 16 15 13 15 19 12 14 15 17 17 14 16 18 21 21 22 23 23 28 25 22 19 17 16 14 12 13 13 14 13 14 16 13 11 11 12 16 18
20 18 25 23 20 18 21 22 19 17 13 16 16 19 22 15 15 17 18 16 21 17 18 21 22 22 22 23 23 21 20 18 16 16 14 11 12 13 11 9 14 17 13 11 11 10 12 12 13
25 25 25 24 24 25 25 27 25 21 21 22 18 18 19 19 20 20 19 22 19 21 17 21 24 26 24 24 23 18 20 19 18 17 16 14 12 12 12 12 12 10 14 8 11 12 12 12 13
29 31 28 29 29 29 32 31 30 24 21 24 19 19 20 21 19 17 20 22 22 19 17 20 24 28 26 24 25 21 20 20 18 17 16 14 13 13 13 13 13 10 11 11 9 11 11 7 10
32 32 31 31 31 34 32 29 33 27 23 24 26 21 22 21 21 22 23 23 22 21 20 16 28 29 28 28 25 24 22 20 18 16 15 15 15 13 13 13 12 13 12 12 10 12 7 9 13
32 33 33 33 34 31 33 33 29 27 25 28 27 22 25 26 20 20 21 21 21 22 19 17 27 30 31 30 23 25 21 19 19 16 15 15 14 13 13 14 15 16 14 15 13 11 12 12 15
33 36 35 35 32 32 24 32 36 29 27 28 29 24 25 23 20 17 21 20 20 21 18 17 24 31 32 31 29 26 24 22 19 16 14 14 13 13 13 16 14 17 17 16 17 14 13 14 16
32 31 29 34 34 31 28 35 31 28 27 29 27 21 25 19 20 21 23 19 18 17 17 18 24 31 32 30 29 27 24 23 20 15 14 14 13 13 14 17 15 16 15 15 15 16 14 15 16
26 28 38 32 31 28 30 37 31 27 26 27 28 29 17 21 23 24 26 22 21 21 18 20 24 29 31 28 28 26 21 21 18 15 13 13 13 13 15 16 16 15 12 11 13 14 16 15 14
31 32 30 33 30 28 32 35 33 29 21 26 27 27 23 21 26 27 26 24 21 18 16 18 24 25 28 26 24 24 21 19 16 13 13 11 12 11 13 14 14 12 11 12 13 14 15 14 14
30 26 31 32 28 27 29 30 31 19 23 27 27 28 23 22 26 29 27 23 18 14 15 18 21 24 27 25 25 24 22 18 14 12 11 11 11 11 12 12 12 13 12 13 12 12 13 13 12
31 31 32 29 27 21 22 23 25 25 25 25 27 26 24 25 26 24 23 18 10 11 15 19 22 24 27 24 23 20 17 15 13 11 10 9 10 11 12 10 12 12 11 12 11 12 13 12 12
32 31 29 29 24 20 19 27 28 25 27 27 28 29 28 27 24 21 18 12 9 14 17 20 21 24 24 21 18 14 12 8 7 9 10 11 7 9 9 10 10 9 10 8 10 12 13 12 13
31 29 27 23 20 18 20 22 23 21 23 25 23 22 21 20 20 19 18 9 11 15 17 19 22 25 22 22 19 17 14 11 9 4 3 3 5 6 6 7 8 7 7 6 8 10 11 14 13
35 25 24 23 21 22 23 16 18 21 22 25 24 23 21 20 20 20 14 13 14 16 18 22 24 24 24 19 17 15 10 7 4 4 2 4 3 5 7 5 6 6 4 5 5 5 7 10 12
27 27 24 18 17 19 21 19 24 19 20 18 13 13 17 18 19 10 14 16 17 19 22 24 26 23 21 18 15 10 7 4 4 4 4 5 4 5 5 5 4 3 3 4 5 4 5 5 6
29 22 15 16 17 20 18 17 21 18 17 18 16 16 3 5 9 11 14 15 19 23 25 26 25 23 20 17 14 11 9 6 4 3 6 6 5 7 7 5 4 2 4 5 4 6 5 5 4
30 29 15 26 11 16 23 16 16 14 9 10 13 11 13 6 9 13 15 16 21 25 26 25 24 22 19 16 14 11 8 9 5 3 1 7 6 6 7 5 3 2 3 4 4 5 4 5 4
38 28 32 21 22 11 14 10 14 17 14 13 13 9 9 11 12 15 16 17 24 25 24 24 23 20 18 15 13 10 7 3 7 5 4 6 6 7 6 3 2 3 5 2 2 1 2 2 3
35 27 25 21 23 14 14 9 10 5 9 7 13 10 13 14 16 17 17 18 24 24 23 22 20 19 17 15 13 11 8 7 6 6 5 6 6 5 5 3 3 1 3 1 2 1 3 5 5
28 25 29 21 17 14 12 10 3 6 10 7 13 11 15 16 17 18 18 21 23 23 22 21 19 18 16 14 12 13 9 8 7 5 8 7 7 6 5 4 3 2 1 1 2 3 3 5 6
31 28 32 15 22 17 9 6 6 5 3 4 3 13 16 17 18 19 19 19 22 22 21 19 18 17 16 14 12 12 10 5 6 8 9 8 8 6 5 4 4 3 3 0 2 4 3 6 6

GFSSGP_925_spd_012.txt.gz
Wind_Speed
7 6 7 8 5 7 14 19 14 4 6 5 3 1 10 9 8 4 18 12 19 23 30 31 28 26 23 21 19 16 12 9 7 5 4 3 3 3 2 2 3 2 3 3 3 3 3 3 4
8 9 10 6 7 12 14 14 14 19 15 8 4 5 4 8 14 16 14 9 20 21 26 32 30 28 24 22 19 17 13 11 8 6 5 4 3 3 3 3 3 4 5 5 4 5 7 7 5
11 15 8 5 11 14 8 4 16 9 18 3 3 6 2 3 12 7 11 7 21 19 23 30 32 29 26 23 21 18 15 12 10 8 6 5 5 5 5 5 5 6 7 7 7 8 8 10 9
8 10 7 8 18 20 21 8 16 18 12 4 5 4 5 16 5 8 6 5 21 18 18 26 32 30 28 25 22 20 17 14 11 9 8 7 7 7 8 8 8 8 9 10 11 12 11 11 10
18 7 10 14 19 19 19 4 13 11 10 11 2 3 3 14 14 9 6 5 12 17 15 19 25 30 29 26 23 21 18 16 13 11 9 7 7 8 9 9 10 10 11 12 14 14 15 14 12
7 7 12 14 21 22 19 19 8 11 13 14 12 4 7 14 14 6 5 5 10 22 23 20 20 26 29 26 24 22 19 17 14 12 10 8 8 8 8 10 12 13 13 13 12 13 13 13 15
16 10 16 20 21 23 18 9 10 11 13 12 11 6 4 11 9 3 6 8 11 15 28 26 21 24 28 27 26 24 21 19 17 14 13 10 10 9 10 12 14 14 14 14 15 15 13 13 13
13 12 19 21 19 24 19 18 5 9 15 8 4 3 5 12 17 4 9 12 15 9 31 31 26 24 27 30 29 26 23 21 19 16 14 13 12 12 11 12 14 11 12 13 13 15 14 14 15
19 15 16 23 23 21 19 19 17 9 15 9 17 13 14 14 21 8 12 15 14 11 21 32 31 25 25 27 26 30 26 23 20 19 17 15 14 10 12 17 13 12 12 16 15 13 13 14 16
18 17 26 23 20 21 21 20 17 17 14 17 13 25 20 15 18 16 13 15 16 16 12 34 37 32 26 26 26 26 30 27 24 21 17 16 13 11 12 7 11 15 17 11 12 10 9 11 11
24 26 25 26 25 25 27 25 20 23 24 18 19 15 21 12 12 14 18 21 19 18 14 17 36 36 32 28 28 31 26 25 23 21 19 18 14 12 13 16 17 19 15 10 11 12 11 10 12
28 30 28 29 26 26 28 26 27 25 26 22 22 16 18 12 9 16 19 18 19 18 22 17 35 38 35 31 28 29 27 27 25 24 23 21 16 16 16 14 12 8 13 8 8 11 13 9 8
30 29 29 29 29 28 29 29 28 28 29 22 23 21 18 18 13 21 27 21 17 16 18 17 32 38 39 32 32 31 29 31 28 26 27 24 20 16 15 15 12 12 8 9 9 11 7 9 11
31 30 31 31 31 29 30 29 28 28 25 26 23 21 21 22 21 19 26 17 17 12 16 12 27 36 40 42 32 34 29 28 29 26 24 26 22 16 15 14 13 15 17 17 14 10 10 11 13
31 33 32 31 31 32 27 32 30 26 25 23 25 24 22 21 25 18 26 16 11 12 16 14 18 33 40 42 40 23 28 24 27 23 20 21 21 17 15 14 13 13 15 18 19 19 16 15 14
32 33 29 31 30 36 27 31 31 26 27 23 24 22 20 25 19 22 18 11 7 12 16 15 18 35 39 36 35 26 25 25 20 21 18 19 16 15 14 13 15 16 15 16 18 21 20 19 19
26 23 33 38 30 33 33 30 33 25 26 25 24 22 19 20 20 21 15 17 18 21 19 18 20 31 36 28 24 28 21 21 20 19 20 21 18 16 15 15 15 14 15 16 17 15 16 19 20
23 30 35 30 27 28 29 28 28 25 27 25 24 17 17 18 20 16 17 17 23 25 24 25 22 26 31 26 23 22 20 18 20 17 16 13 14 12 12 12 14 11 11 12 13 15 17 20 17
26 30 33 31 28 29 25 27 27 23 21 20 19 22 16 19 15 23 17 19 22 26 23 21 21 25 31 26 24 20 20 19 17 15 12 11 9 9 11 12 11 9 13 14 14 15 14 13 13
33 32 30 27 26 24 22 23 21 21 21 19 20 16 16 17 18 16 15 16 25 12 12 16 19 27 27 24 22 20 20 19 18 15 13 13 11 10 10 11 12 10 14 14 12 10 9 10 11
31 30 26 29 25 26 22 24 23 23 22 22 21 19 20 22 22 20 17 16 14 15 16 16 17 20 23 20 21 19 20 20 18 14 11 13 11 8 8 9 10 11 11 10 9 10 11 9 12
29 28 28 26 21 18 18 18 21 17 21 19 17 16 18 17 16 19 18 13 17 17 16 17 17 20 22 20 20 18 14 12 13 13 10 10 6 3 2 5 7 8 5 5 6 8 11 12 12
34 25 25 25 23 21 24 15 18 16 18 19 20 21 21 20 16 16 12 12 19 20 18 19 19 22 20 22 19 19 15 12 11 7 6 1 2 2 3 3 5 4 5 5 5 6 9 11 13
25 24 27 24 18 17 23 20 17 18 19 22 19 7 10 10 13 9 15 22 21 21 21 21 22 18 23 19 19 18 10 13 13 7 7 6 3 3 5 5 5 5 3 4 5 4 6 9 12
31 21 15 16 15 21 18 18 17 18 19 20 14 8 7 11 14 18 18 15 18 21 22 21 21 21 18 19 18 11 10 8 7 6 8 8 6 5 6 5 4 2 3 4 5 5 4 5 5
30 25 16 25 13 19 22 21 21 19 23 17 4 8 5 8 10 14 13 14 18 22 23 22 22 20 19 18 15 14 12 10 9 6 7 9 5 8 7 4 3 3 3 4 5 6 5 5 6
27 27 26 23 20 14 16 16 25 19 13 14 10 10 12 10 11 13 14 13 19 22 22 24 22 20 19 17 17 14 9 11 11 9 7 7 10 11 8 5 3 3 4 5 5 4 5 5 5
28 23 24 19 22 18 19 16 4 11 8 4 10 10 15 13 13 13 13 14 21 22 24 23 22 20 19 17 16 14 8 7 7 6 3 8 11 9 7 4 2 2 5 4 3 2 3 5 5
24 25 25 17 16 14 13 9 3 2 3 7 12 15 17 16 15 14 14 18 21 22 21 22 20 19 18 17 13 17 11 10 7 7 7 9 8 7 6 4 5 7 2 1 3 4 4 5 4
29 25 24 15 23 18 14 11 11 5 6 5 13 17 16 17 16 16 16 15 20 21 21 19 20 18 17 17 18 14 12 12 7 8 8 10 8 7 5 4 5 9 2 2 3 3 2 1 3

GFSSGP_925_spd_015.txt.gz
Wind_Speed
9 6 1 1 3 1 4 8 7 5 8 5 5 6 3 3 6 5 21 21 20 26 35 34 30 27 24 22 20 17 15 13 12 11 10 8 7 6 4 3 2 3 3 3 2 2 2 2 2
9 3 3 3 2 2 5 9 4 1 4 14 13 2 5 3 11 9 13 17 18 25 36 35 31 27 25 23 21 18 16 14 12 10 9 7 7 6 4 3 2 3 4 5 4 5 5 4 5
8 8 2 4 4 5 5 4 1 6 8 6 6 2 1 5 6 7 22 22 20 25 32 31 30 27 25 23 21 19 17 15 13 11 8 7 6 4 3 3 3 4 6 6 7 7 7 7 9
6 2 3 2 9 12 10 12 9 4 6 18 21 6 4 7 4 13 26 23 21 21 24 29 30 27 26 23 22 20 18 16 14 11 9 7 5 4 3 4 6 7 8 8 9 11 11 9 9
6 2 3 4 9 12 16 17 10 9 9 13 32 7 8 10 23 15 21 25 24 22 22 30 32 31 28 25 23 22 19 18 16 13 10 9 7 5 5 6 7 8 8 9 11 12 13 12 12
2 2 2 6 12 17 17 14 7 9 8 15 3 6 5 18 19 17 14 27 26 26 24 28 34 33 32 29 25 24 21 20 18 16 13 11 9 7 6 7 8 9 10 11 11 12 12 13 13
3 3 5 7 14 20 19 10 6 5 6 3 3 5 7 10 17 20 17 19 34 29 29 28 34 36 34 32 30 27 25 23 21 19 17 14 12 10 7 7 8 10 11 12 13 13 14 15 14
4 2 5 6 13 20 18 14 7 6 4 2 4 4 1 6 18 18 12 4 7 38 36 36 36 38 39 36 34 31 28 27 25 22 20 17 15 13 9 7 9 9 9 10 12 13 14 14 15
5 4 5 12 13 16 17 17 14 7 6 4 6 5 8 30 24 4 6 6 14 35 41 39 39 39 41 41 39 35 32 30 28 25 23 20 19 15 11 9 11 12 11 10 11 11 12 12 13
11 6 11 17 18 15 16 11 19 17 6 6 15 10 27 29 14 4 3 5 14 15 38 43 41 40 41 42 43 40 37 35 33 30 27 24 20 15 11 9 11 11 11 11 11 6 8 10 11
14 20 15 18 17 19 20 22 16 18 9 8 9 9 16 12 24 1 4 9 18 22 14 44 44 42 43 41 42 42 41 38 36 33 30 26 21 15 12 13 15 15 16 14 12 10 11 9 9
16 21 21 17 19 23 25 22 21 18 13 9 10 13 5 12 8 7 8 12 19 28 21 35 44 44 42 38 41 40 39 40 40 35 31 27 23 18 17 14 14 14 15 16 12 10 13 11 11
24 22 19 20 21 24 24 25 24 24 18 13 11 14 11 10 9 11 17 19 21 28 20 17 31 43 46 41 40 38 37 37 35 32 32 29 25 22 20 17 16 14 10 11 10 11 10 14 15
17 18 22 19 23 23 24 25 21 21 13 16 18 16 15 10 11 13 15 22 28 31 20 15 25 42 46 43 42 41 38 37 32 30 28 30 27 24 18 16 17 16 14 14 15 12 10 13 13
20 22 20 23 21 20 16 27 31 19 13 17 12 14 14 11 13 12 22 23 33 23 16 15 25 37 44 44 43 40 38 35 32 32 29 32 30 23 17 16 14 11 15 16 16 17 16 18 15
17 18 21 22 23 23 16 42 15 16 22 22 25 23 19 12 10 18 25 26 20 16 14 15 22 32 43 45 42 38 35 34 32 32 28 29 29 22 18 17 16 14 15 15 15 18 21 21 20
9 18 22 26 22 16 11 32 15 21 23 22 19 23 23 22 11 20 25 20 19 21 20 21 25 30 40 45 38 29 30 27 31 30 23 22 23 21 18 16 16 16 16 14 15 16 18 20 20
13 18 22 27 9 12 22 32 28 29 27 26 23 21 18 18 15 19 25 26 26 19 15 19 26 29 37 39 36 27 25 24 23 26 23 22 22 19 14 16 16 14 13 13 12 15 15 17 18
15 19 22 16 16 17 25 26 26 26 22 18 17 10 8 10 10 11 14 13 19 19 19 21 27 30 33 32 32 29 23 23 23 17 22 19 19 16 15 11 10 12 12 12 12 12 15 17 17
22 25 24 14 10 14 16 14 19 17 13 9 10 9 9 8 8 9 14 20 18 21 15 21 28 32 34 35 29 29 24 22 21 17 17 19 20 14 10 12 12 11 10 12 13 13 14 9 10
25 24 18 18 14 22 18 18 19 19 14 11 12 9 10 18 12 12 10 13 15 12 20 25 29 34 33 31 27 24 22 21 21 17 18 17 14 10 9 8 8 9 9 10 8 10 12 11 11
23 14 20 20 15 14 11 17 19 11 16 19 15 16 15 20 18 15 11 8 15 21 23 25 27 30 27 30 28 29 20 19 20 20 18 17 14 12 9 7 6 7 5 4 6 7 11 12 12
24 11 19 16 15 16 18 9 7 9 9 10 13 13 13 14 13 11 11 7 22 27 26 24 25 28 26 30 27 23 22 21 21 21 19 17 12 8 6 5 4 4 4 5 5 5 7 10 12
17 16 19 16 11 12 17 15 20 12 6 13 10 14 15 6 4 5 15 23 22 27 27 26 28 24 24 25 24 24 21 21 24 20 17 15 11 7 6 6 4 5 4 3 5 5 6 8 12
15 13 7 9 9 16 13 12 17 11 13 18 12 10 3 9 11 12 16 15 18 22 26 27 24 24 26 27 23 19 17 19 18 15 13 12 10 7 7 7 6 5 3 4 4 4 6 5 9
13 13 8 13 8 17 13 8 9 22 15 11 14 8 12 12 13 12 12 12 17 22 23 28 28 26 25 23 20 19 17 15 12 9 10 11 11 8 11 6 4 3 2 2 4 6 7 6 5
19 18 18 15 11 8 5 10 22 26 19 11 17 9 13 12 13 15 12 12 19 19 24 28 26 27 24 23 19 13 11 10 13 12 12 11 11 11 10 6 4 3 3 3 4 6 7 6 6
18 8 6 11 12 12 6 13 9 10 18 10 9 12 14 14 15 12 12 13 19 22 27 26 25 25 22 22 19 16 17 14 12 12 11 12 12 11 10 6 5 4 2 5 7 6 6 7 5
9 16 11 6 9 9 7 9 12 8 9 10 10 18 16 16 15 14 14 17 19 24 27 26 25 24 22 22 20 17 15 12 13 11 14 13 13 11 8 5 4 4 5 4 3 4 5 7 5
17 20 15 8 18 5 5 9 11 5 7 7 15 14 15 17 16 16 16 13 20 19 24 26 24 25 22 20 19 17 18 15 11 10 10 10 11 9 7 8 5 5 3 3 3 2 2 3 4

GFSSGP_925_spd_021.txt.gz
Wind_Speed
4 2 2 2 3 5 4 6 3 6 2 3 1 4 5 0 5 5 2 25 13 25 36 35 31 28 26 24 23 22 20 20 19 18 16 15 14 12 11 10 9 8 8 7 6 5 4 3 2
2 4 0 2 3 2 5 4 8 3 4 3 5 4 4 2 3 3 8 24 16 27 38 38 33 30 28 25 23 23 21 20 19 18 17 15 14 12 11 10 10 9 8 7 7 6 5 4 3
5 1 2 3 3 5 5 3 2 7 9 5 2 1 8 3 5 8 4 27 19 28 38 38 35 33 30 28 26 25 23 22 20 18 17 16 15 13 12 10 9 9 9 9 8 7 6 6 5
6 4 3 3 7 5 5 3 4 7 7 4 2 5 3 6 6 8 17 26 23 30 37 39 37 35 33 31 30 28 26 24 22 20 18 16 15 14 13 11 9 9 10 10 9 9 8 8 7
3 4 1 3 5 4 4 6 8 5 4 2 1 4 3 3 8 10 24 26 27 32 37 39 38 36 34 33 32 29 28 27 25 23 20 18 17 16 14 12 10 10 11 11 11 10 10 11 11
2 2 1 5 5 2 3 7 6 3 2 3 1 2 1 8 14 19 23 25 27 30 37 39 40 38 36 34 33 32 30 29 27 25 23 21 19 17 15 12 9 9 10 10 10 11 12 13 14
4 3 5 4 3 5 4 3 1 3 5 5 3 2 2 3 15 18 22 22 25 28 35 39 42 41 38 37 36 34 33 31 29 27 25 23 21 18 15 12 9 8 9 10 10 12 12 13 13
4 4 2 5 3 5 4 4 2 5 4 7 1 2 3 6 21 17 20 21 24 27 35 39 41 42 42 40 39 37 35 33 31 29 27 25 22 19 16 13 10 9 9 9 8 10 11 12 13
5 2 5 5 6 3 6 7 16 2 8 4 6 3 7 10 14 18 24 22 23 28 31 37 41 44 45 44 43 39 37 35 33 31 29 27 25 23 18 15 11 10 9 9 9 9 11 12 12
5 5 10 7 6 2 4 3 14 15 19 10 5 8 8 11 13 13 13 19 30 31 36 39 41 45 47 46 43 42 41 39 37 36 33 32 29 26 21 17 13 12 11 11 11 11 11 11 12
6 12 8 5 8 6 3 10 4 6 12 18 8 7 12 6 12 12 13 24 31 39 37 42 44 44 47 47 46 45 45 42 41 39 37 35 32 28 24 20 16 15 14 14 14 14 14 13 12
6 8 13 10 9 8 13 7 15 14 19 13 11 13 7 13 12 9 10 15 25 29 34 42 46 46 48 45 47 46 47 47 47 45 41 39 36 31 27 23 19 17 15 16 16 16 15 15 14
15 13 8 9 11 10 11 19 23 22 14 13 12 14 14 13 11 18 23 23 24 16 28 39 43 48 50 49 43 44 48 50 50 46 46 43 40 35 30 24 21 19 18 17 17 18 18 16 16
1 2 13 10 12 8 12 20 19 21 18 16 16 12 13 14 12 12 15 20 23 29 30 31 38 44 47 49 48 50 45 49 46 43 45 45 41 35 31 26 23 21 19 16 17 19 19 18 17
7 12 12 13 4 6 6 24 29 16 17 20 20 18 15 12 12 12 22 25 36 38 39 36 33 38 43 48 49 48 47 44 44 44 44 43 40 35 31 27 27 23 18 18 18 18 18 17 17
2 4 13 14 15 7 7 36 14 2 11 19 15 11 11 15 13 21 27 32 39 44 42 40 32 33 42 46 46 43 42 43 42 41 41 40 36 37 33 31 29 21 19 18 18 20 19 17 17
5 7 9 2 7 9 19 39 16 11 13 19 15 15 16 13 11 20 34 39 40 45 45 41 34 33 37 44 42 40 38 39 38 36 37 37 35 36 33 31 23 20 18 18 19 19 17 18 21
10 13 1 3 4 11 17 29 18 8 9 12 15 17 17 18 18 23 32 41 40 43 38 32 31 32 34 35 33 32 32 33 33 33 32 31 31 30 30 27 23 21 18 18 17 16 17 19 21
10 4 1 2 5 8 17 22 19 11 16 21 23 21 20 11 13 23 30 37 39 34 28 27 26 30 31 32 31 29 33 32 32 30 31 29 28 30 30 27 23 20 19 18 15 15 16 18 16
8 9 11 6 11 6 13 13 15 14 16 16 18 18 15 14 14 17 22 29 31 31 27 25 28 29 34 32 27 17 25 25 31 27 27 27 30 28 30 27 23 19 17 14 14 14 13 11 9
6 7 5 7 11 19 16 21 17 20 15 18 18 12 10 14 16 15 13 19 30 26 28 23 26 31 32 30 22 15 22 20 22 25 27 28 25 26 27 22 21 18 15 14 14 12 12 10 5
17 5 7 4 4 8 2 18 25 18 23 16 16 9 12 15 12 11 13 13 21 30 32 26 25 26 29 29 26 27 19 18 18 29 29 24 22 24 22 22 19 16 14 13 11 9 9 10 8
6 11 8 13 11 4 7 5 15 7 13 22 20 17 18 14 14 12 14 9 22 16 18 22 22 20 21 24 27 27 23 17 28 29 27 25 24 23 22 20 16 14 10 9 9 8 9 10 11
5 3 10 9 3 7 12 10 25 10 12 10 10 10 11 10 10 8 6 3 2 7 11 15 21 21 25 25 28 30 31 30 29 26 26 26 25 21 18 15 12 9 9 8 7 7 9 9 11
4 5 1 2 4 11 7 14 21 4 5 6 7 11 10 9 7 4 1 4 7 13 17 20 24 26 24 25 27 28 31 31 31 31 30 27 23 19 16 12 11 10 8 7 7 8 9 10 12
7 8 4 6 5 5 10 11 8 9 13 16 15 16 8 8 4 5 5 6 8 16 18 23 25 25 23 22 22 24 25 26 27 28 28 24 17 12 11 11 10 8 8 7 8 10 11 11 11
1 4 7 4 5 1 5 7 9 13 20 14 13 7 9 8 6 6 7 7 10 16 18 26 26 25 24 22 21 22 22 24 25 23 19 16 12 10 11 10 9 7 7 7 9 10 10 12 11
5 3 3 1 4 5 5 6 10 5 8 6 7 11 8 7 8 7 7 7 13 20 23 27 29 29 28 28 28 27 25 23 21 19 17 14 12 11 11 9 6 6 7 9 11 12 12 10 9
2 2 3 4 5 3 3 6 6 9 8 11 16 9 10 11 11 9 8 8 15 22 24 26 30 31 30 28 26 25 22 19 18 17 15 14 13 12 10 7 5 6 8 10 11 11 11 10 9
0 4 4 3 6 5 3 8 8 3 7 10 16 7 9 10 11 10 10 10 14 17 21 24 29 30 28 27 25 22 19 17 17 16 16 15 13 11 8 5 4 8 12 12 10 10 9 11 10

GFSSGP_925_spd_024.txt.gz
Wind_Speed
3 3 2 1 3 4 3 6 2 4 3 4 2 6 10 6 7 5 2 22 13 28 31 35 32 30 27 26 25 24 24 23 22 21 20 18 17 15 14 12 11 10 8 7 7 6 5 4 3
6 6 0 1 4 2 5 4 4 5 3 8 7 2 4 5 4 2 5 22 14 26 30 37 35 32 29 29 27 26 25 24 23 22 21 20 19 17 15 13 12 10 9 8 7 5 4 4 3
8 3 2 3 4 5 5 4 3 4 7 5 2 1 3 3 2 3 4 25 18 27 32 39 37 33 30 31 29 27 26 25 24 23 21 20 19 17 16 14 13 11 10 8 6 5 4 3 3
7 3 3 2 6 6 6 6 0 6 6 6 5 2 3 3 8 9 10 25 21 27 33 39 37 34 32 32 31 29 28 26 24 22 21 20 18 17 15 14 12 11 10 9 8 6 5 4 4
2 3 1 2 5 6 5 5 3 6 4 3 1 3 2 3 4 8 15 25 22 26 33 38 37 36 34 33 32 31 29 27 25 23 21 19 18 16 15 13 11 10 10 9 8 6 6 6 7
2 3 0 5 5 5 7 7 2 3 4 7 4 4 2 1 8 8 17 23 21 23 30 36 38 37 36 35 34 33 31 29 27 24 22 20 18 17 15 12 10 10 9 8 8 7 5 7 10
5 4 4 3 3 4 6 4 4 3 3 4 1 2 3 2 9 10 18 19 19 22 27 33 37 38 37 36 36 35 33 31 29 26 24 21 20 17 15 12 11 10 9 9 8 7 8 8 10
4 4 2 5 5 6 4 4 7 6 3 3 2 4 5 3 7 10 13 14 17 21 26 32 36 39 40 40 38 37 35 32 31 29 26 24 22 19 16 14 12 10 10 9 8 7 6 7 8
4 2 5 6 7 5 2 4 4 4 5 2 2 7 5 9 1 7 9 14 17 20 23 27 34 38 41 40 40 39 37 35 33 32 30 28 26 23 20 18 15 12 11 10 9 7 6 6 7
5 5 10 6 7 4 3 2 8 6 7 3 3 5 8 6 7 7 8 16 22 25 29 30 34 39 41 42 42 40 40 39 38 37 36 34 31 27 24 20 17 14 13 11 11 9 8 7 7
7 10 8 6 6 3 5 8 3 10 6 6 10 7 5 4 7 7 14 22 29 35 35 36 38 39 43 45 44 43 43 43 42 42 40 37 33 30 28 24 21 17 15 15 13 12 11 9 8
6 12 13 6 5 3 6 5 8 11 10 10 14 11 6 11 9 8 15 23 28 32 35 36 37 40 44 44 47 47 46 47 47 47 43 41 38 33 30 28 24 21 18 18 16 14 13 12 11
13 6 8 10 6 6 6 16 14 21 11 12 14 15 12 11 12 24 25 21 24 22 27 31 34 39 45 46 44 45 49 50 50 46 46 43 41 38 34 31 26 23 20 20 18 17 15 13 12
2 5 11 6 7 4 8 17 7 11 8 14 15 17 15 12 12 18 20 23 22 23 27 28 29 36 40 46 47 50 47 46 44 47 46 44 42 39 35 32 28 24 22 18 17 17 16 15 14
3 5 3 6 4 8 7 22 31 16 12 17 20 20 17 16 15 13 24 21 29 32 30 30 29 32 39 43 47 47 46 42 43 42 42 46 47 41 35 32 28 24 22 19 19 17 17 16 16
5 5 12 14 11 6 9 31 16 9 16 22 22 14 13 13 13 21 26 26 27 30 36 39 33 27 31 41 44 44 42 42 43 43 43 43 42 39 34 34 32 25 26 22 19 18 16 16 17
4 14 6 4 9 7 18 33 2 5 8 11 10 13 13 17 12 17 25 29 33 39 43 42 37 31 30 35 39 40 38 41 39 36 38 33 34 32 36 35 32 28 27 20 19 17 17 17 19
6 3 2 4 7 15 15 28 11 13 16 16 13 14 13 13 11 16 25 35 39 41 43 39 38 33 28 30 32 32 35 36 36 35 34 31 26 31 33 34 30 25 24 20 17 16 16 18 18
4 3 3 3 1 4 14 19 14 9 11 14 18 19 21 20 15 21 30 35 40 38 38 36 31 28 23 28 29 28 30 30 31 30 30 24 27 29 32 33 27 25 23 20 16 15 16 15 14
7 0 3 5 8 4 4 11 14 13 16 17 18 16 14 9 8 11 23 28 34 37 37 30 30 27 25 29 27 16 23 21 25 25 22 24 25 28 31 28 30 27 22 18 16 17 13 9 9
4 4 3 6 7 13 10 18 14 15 14 16 16 16 16 16 15 15 11 19 32 31 37 29 29 23 23 27 25 17 19 11 19 22 23 24 24 28 26 27 27 24 20 17 17 15 13 9 6
7 4 2 2 1 5 3 13 19 18 20 17 15 16 17 11 15 14 12 11 25 33 31 26 25 22 24 27 28 27 16 12 13 26 24 24 25 24 24 26 23 20 16 16 14 12 11 10 9
7 9 9 8 7 4 5 5 17 5 8 11 16 19 16 16 10 13 13 14 26 27 26 23 22 20 23 27 27 26 18 16 19 23 23 20 20 20 22 25 19 17 15 12 11 9 10 11 10
5 5 4 2 3 4 8 9 24 7 13 15 9 11 12 11 9 10 9 10 12 8 4 5 13 16 20 23 23 25 24 24 25 26 27 23 20 19 19 18 16 13 11 10 9 10 10 10 10
5 5 2 1 2 8 10 11 23 7 9 6 8 9 9 8 9 8 5 1 3 3 6 12 19 21 22 23 26 25 26 30 32 32 25 21 18 18 18 17 14 11 10 11 9 9 10 11 10
6 7 4 6 5 5 6 11 7 12 13 8 7 10 9 10 7 3 3 3 5 8 12 18 23 23 21 23 24 25 27 29 30 29 26 26 25 20 16 14 12 12 11 9 9 10 9 10 10
3 4 7 3 3 1 5 6 7 15 13 11 9 9 12 11 4 4 6 5 6 12 16 20 24 23 23 23 24 25 25 25 28 29 29 26 20 17 15 13 13 11 10 9 9 9 8 8 10
4 3 2 1 4 5 5 5 6 9 4 8 10 10 12 3 7 8 6 6 9 16 20 22 25 25 24 25 25 24 23 24 24 25 24 20 17 14 15 13 11 9 8 8 8 8 9 9 10
3 3 2 3 5 3 3 5 6 8 4 6 14 19 11 8 10 10 7 7 13 17 20 23 25 26 25 25 26 25 24 23 23 21 18 16 14 15 12 11 7 6 6 8 8 10 10 10 10
3 3 5 4 6 4 4 6 7 3 8 12 15 10 5 9 13 12 8 9 11 14 18 22 26 28 28 28 27 24 21 19 18 16 16 15 15 13 11 7 3 4 8 9 10 10 10 10 12

GFSSGP_925_spd_027.txt.gz
Wind_Speed
8 6 4 1 3 2 4 4 2 3 3 3 4 4 18 7 11 3 1 20 14 27 32 35 33 31 30 28 27 25 25 25 25 24 22 21 20 18 17 16 14 12 10 8 7 6 6 5 5
9 8 2 2 3 5 4 3 7 7 1 8 5 4 5 5 3 1 7 18 16 27 32 35 34 31 31 30 29 27 26 25 23 22 20 19 18 17 15 14 13 12 11 10 9 8 6 4 4
9 4 3 3 3 8 3 6 5 4 9 4 1 2 2 1 2 3 6 21 18 25 29 34 34 32 31 31 30 29 27 26 25 23 21 19 17 16 14 13 13 13 12 11 10 9 7 6 4
5 3 2 4 12 9 4 5 3 5 3 5 2 3 2 2 2 6 16 22 19 23 26 33 35 34 33 33 32 30 29 28 27 25 23 21 20 18 16 14 13 12 11 12 11 9 8 7 6
2 1 4 5 11 7 7 9 9 9 6 2 4 2 2 1 3 8 17 21 18 20 23 30 36 35 34 33 32 31 30 28 28 26 25 23 21 19 18 16 15 12 11 11 11 9 8 7 6
2 1 4 15 14 10 9 10 6 7 3 2 3 4 2 2 6 10 17 21 17 19 22 26 36 36 36 34 33 31 31 30 29 28 26 24 23 22 20 18 16 13 13 12 10 9 8 7 7
4 4 8 4 7 6 16 9 8 8 3 8 4 2 2 5 3 7 12 15 16 15 19 24 27 36 37 34 33 32 32 31 30 29 28 26 24 24 21 19 15 14 13 11 10 9 8 8 8
3 3 7 8 10 10 3 3 5 14 7 4 3 4 3 3 6 7 8 10 11 13 15 19 25 26 29 28 35 34 34 34 33 31 30 28 26 24 22 18 16 15 14 12 10 9 7 6 7
4 6 11 16 11 5 1 2 1 6 5 3 4 4 5 7 10 8 5 6 9 12 17 21 25 28 28 27 29 37 36 35 34 33 32 29 24 23 21 20 18 16 14 13 11 9 8 6 6
10 10 16 8 12 6 5 5 3 4 5 4 6 5 6 3 4 3 4 9 11 15 19 22 27 31 30 28 28 30 30 33 35 34 30 30 24 22 21 20 20 16 14 12 11 10 9 7 6
10 19 18 16 13 11 15 14 5 7 12 11 8 13 8 7 11 10 12 13 16 16 16 22 25 28 30 29 30 31 30 32 34 32 31 28 25 23 22 18 17 14 14 11 11 11 10 9 7
14 19 20 15 6 7 12 12 17 15 17 13 15 16 15 14 11 10 14 17 25 20 23 20 23 28 34 31 31 30 32 33 34 32 32 31 28 25 24 20 17 14 11 12 12 11 11 10 10
22 22 14 21 13 14 7 21 21 22 17 19 20 19 18 18 14 15 17 21 23 22 26 26 22 25 30 34 31 33 37 36 36 31 33 38 33 33 28 26 24 22 16 14 13 14 13 11 11
11 19 22 16 17 19 18 26 21 22 14 16 17 19 19 18 16 19 17 20 21 29 30 26 23 24 28 33 37 42 38 37 33 33 35 39 35 32 27 27 27 27 23 15 16 17 15 14 12
15 17 12 15 23 19 11 23 36 22 20 25 23 22 23 22 23 21 24 22 25 25 24 27 29 27 30 33 38 38 37 33 33 34 34 33 40 34 33 28 29 29 25 22 22 17 13 12 12
11 13 22 24 13 9 17 32 32 24 23 27 25 23 22 24 21 24 21 21 24 25 25 27 31 29 27 28 35 34 31 31 31 29 28 29 30 29 29 30 28 31 27 27 19 14 13 14 12
13 21 26 22 21 19 18 34 22 11 10 20 19 17 16 17 17 19 20 21 28 28 28 35 29 25 27 25 28 27 27 28 25 24 25 24 27 27 27 31 32 32 30 20 16 14 14 16 12
17 19 19 18 15 22 28 34 24 18 18 20 19 20 21 22 21 23 23 20 23 33 35 31 30 26 22 19 19 19 20 22 22 22 22 22 24 25 27 28 30 28 20 18 19 16 14 13 9
11 11 17 16 7 20 26 28 25 22 21 23 21 20 22 22 19 24 24 26 29 26 30 33 25 25 13 12 14 17 21 19 19 19 19 22 21 22 24 22 23 22 22 21 19 17 13 10 9
18 16 9 8 9 7 13 18 15 16 20 21 20 22 22 23 21 18 24 26 25 29 34 32 26 23 18 17 14 9 13 15 16 16 18 20 20 21 21 20 20 21 19 17 17 18 9 8 10
18 22 20 11 9 15 14 24 24 22 22 23 23 23 23 23 22 20 21 24 25 23 31 24 25 20 17 16 13 10 11 7 13 17 17 18 19 19 20 21 24 28 21 21 18 15 13 10 7
17 8 11 16 13 13 3 11 16 16 21 21 21 20 22 23 22 22 21 18 22 24 20 26 29 21 15 17 17 18 14 13 10 14 15 17 17 17 18 20 22 22 20 20 17 15 11 10 9
16 16 12 9 10 11 17 10 15 10 17 14 15 20 22 21 21 22 22 20 24 19 19 17 18 16 15 17 17 18 13 11 13 14 16 17 16 17 17 19 20 21 21 19 14 12 12 11 8
10 13 17 14 11 14 17 11 22 16 18 17 18 19 17 16 15 17 17 16 15 10 10 8 6 7 14 18 18 18 16 14 15 17 16 15 15 16 16 18 18 17 15 14 12 10 11 10 9
8 8 7 11 12 17 8 13 23 4 8 14 8 13 17 17 13 11 9 7 6 6 4 3 6 9 13 15 16 15 15 14 17 20 20 20 18 16 17 17 16 13 13 11 10 10 9 9 9
11 16 7 13 12 15 12 13 8 11 8 13 11 14 15 16 14 11 6 4 3 4 5 7 10 13 14 15 15 14 14 14 18 21 22 18 17 17 17 15 14 12 11 10 9 8 8 8 8
11 8 18 5 4 7 11 15 14 19 13 8 10 14 17 17 11 7 4 4 7 7 9 13 14 14 15 17 16 15 15 19 20 18 16 17 17 16 15 14 12 11 10 10 8 8 8 7 9
2 1 9 8 6 8 8 16 8 9 6 9 15 19 19 16 2 6 8 9 10 12 14 14 14 16 17 18 17 17 17 17 18 17 17 17 16 14 13 12 11 9 9 8 9 8 9 9 8
4 8 6 6 11 3 2 3 1 8 9 14 17 21 20 11 3 8 10 11 13 14 15 16 17 18 19 18 18 18 17 17 18 18 17 16 15 14 13 11 10 9 8 9 9 9 9 9 7
5 5 10 9 18 10 8 5 4 12 11 16 21 22 17 7 3 7 11 12 15 16 17 16 17 18 18 19 20 20 19 19 19 17 15 15 15 13 13 11 9 7 7 8 8 8 7 9 9

GFSSGP_925_spd_030.txt.gz
Wind_Speed
11 6 5 6 7 7 14 8 3 10 7 5 3 7 12 11 15 0 8 14 15 27 29 34 33 31 30 29 28 27 27 26 26 25 23 21 19 17 15 13 12 11 10 10 9 8 8 7 6
8 7 7 4 8 11 12 9 12 8 5 2 8 8 8 11 3 4 13 13 19 24 28 31 35 32 31 30 29 28 28 28 26 25 24 22 20 19 16 14 13 11 10 10 9 8 8 7 6
9 7 6 5 12 14 7 9 9 4 4 6 7 6 6 4 6 6 13 17 20 22 25 29 36 34 32 31 30 29 28 28 26 25 24 23 21 20 18 17 15 13 11 10 9 9 7 5 5
7 7 5 10 17 17 8 3 5 2 3 5 5 6 5 2 6 12 19 17 18 20 22 27 36 35 33 31 30 30 29 29 27 26 25 23 22 20 19 17 15 14 13 11 10 8 7 7 6
8 4 10 15 21 16 10 11 5 5 4 9 10 7 4 6 7 14 21 17 16 18 20 22 35 36 34 31 30 29 28 28 27 26 24 23 22 20 18 17 16 15 14 13 12 11 9 7 6
7 6 11 17 19 17 15 12 11 11 7 8 10 7 6 10 12 14 18 15 13 15 17 19 31 36 33 32 31 30 30 29 28 27 26 24 23 21 20 18 17 16 15 15 13 11 9 8 8
14 11 16 19 16 17 17 14 12 12 9 9 5 12 6 13 11 12 16 14 12 13 14 16 19 31 34 31 31 31 32 32 30 29 27 25 24 23 21 19 17 16 15 14 12 10 9 8 8
11 10 21 19 17 20 11 11 16 13 11 6 2 8 10 4 9 11 13 14 13 12 12 14 17 23 26 26 33 33 32 33 32 30 29 27 26 24 22 21 18 16 15 13 12 11 10 9 10
14 12 16 22 19 15 6 15 11 7 6 8 3 3 10 6 10 11 12 13 12 12 13 14 18 21 24 25 25 34 34 34 34 31 30 28 23 22 21 20 19 17 16 14 12 12 11 10 8
15 16 26 20 14 11 15 14 10 9 16 14 9 4 5 5 6 11 11 13 13 12 12 14 17 20 21 23 23 22 26 27 28 27 26 27 25 23 23 21 22 20 18 16 15 13 11 9 8
22 26 22 22 17 15 18 18 13 13 17 17 14 14 2 4 8 9 9 9 7 6 8 12 17 19 22 22 22 22 23 28 30 29 30 28 27 26 25 22 22 19 17 11 15 15 13 12 10
25 26 27 24 16 16 21 21 24 21 20 17 9 10 13 13 12 12 15 16 14 15 13 9 15 18 20 21 22 22 24 27 28 29 32 31 31 28 26 25 22 24 24 21 20 14 13 13 12
28 30 23 23 22 18 18 25 24 26 22 20 20 17 19 19 16 16 16 19 18 18 18 13 13 17 18 21 22 23 27 28 27 29 32 35 32 29 28 26 25 22 20 20 20 16 15 14 12
18 27 30 27 20 22 23 28 22 29 24 23 20 22 21 21 17 18 17 20 20 19 19 19 15 16 16 19 21 24 25 26 27 28 31 36 33 30 30 28 27 25 23 24 20 18 16 14 12
24 26 24 23 29 26 19 30 36 28 25 23 23 24 23 23 23 21 24 21 21 20 18 16 12 13 18 20 22 22 24 23 26 28 28 29 33 31 31 28 28 27 24 21 18 15 12 13 13
16 22 24 33 24 25 23 29 37 27 27 27 28 27 25 27 25 28 26 24 18 16 16 17 18 18 19 22 24 23 24 25 24 24 24 28 30 32 30 29 27 26 24 22 19 16 15 14 13
20 24 31 30 28 24 22 37 37 30 23 27 23 25 24 23 20 20 18 17 18 19 19 19 21 21 23 21 21 23 24 23 23 21 23 24 27 28 30 28 26 27 25 21 19 16 15 13 11
27 26 27 28 23 27 30 35 30 22 18 27 26 22 21 18 19 21 22 23 23 22 21 23 25 24 19 18 19 20 21 19 19 21 22 22 24 25 27 25 27 27 25 21 19 16 13 12 11
24 28 24 21 22 24 28 33 31 28 28 28 24 23 24 24 22 27 26 24 24 24 24 23 22 20 17 16 18 19 20 17 17 19 20 20 21 23 26 24 24 25 25 24 20 17 15 11 8
25 27 28 19 16 21 25 30 28 27 25 27 27 26 26 25 24 22 27 27 27 27 25 25 23 19 17 17 18 16 13 16 15 16 17 19 20 22 24 23 21 24 22 21 18 18 13 10 10
23 26 25 25 15 21 20 24 25 21 23 23 25 25 26 26 25 24 23 29 31 28 25 22 20 18 17 17 16 13 10 7 14 15 15 19 20 21 22 21 19 21 20 19 19 17 13 9 7
24 23 22 25 23 20 20 19 23 24 28 30 28 26 27 26 25 24 24 25 27 27 23 20 18 17 17 17 18 18 16 12 13 15 16 18 19 19 21 20 18 20 20 18 18 14 12 9 9
18 21 19 20 22 24 30 17 19 19 22 23 21 24 24 25 25 23 19 20 23 23 21 21 20 18 16 17 19 18 16 13 13 15 17 17 18 18 18 18 18 19 19 17 16 12 10 9 11
15 13 19 19 15 18 23 18 19 18 24 18 18 19 20 19 20 17 15 17 16 15 17 16 14 14 14 17 18 17 16 14 16 16 18 18 19 18 18 19 18 19 17 14 11 10 10 10 9
13 16 12 17 18 18 20 17 19 9 9 1 10 10 9 12 13 13 13 10 9 11 10 9 10 9 11 14 16 16 15 14 17 20 20 21 20 19 19 20 18 15 13 12 11 11 10 11 11
22 19 16 18 16 20 25 15 15 12 17 7 7 9 10 11 11 11 11 9 8 7 6 8 9 11 13 15 15 15 16 16 17 17 21 20 20 20 20 18 16 14 13 11 10 10 11 12 12
23 14 24 24 21 16 19 24 25 10 10 5 1 7 12 12 11 8 7 6 5 8 10 12 14 16 17 18 17 17 17 18 19 21 19 19 19 20 18 16 15 13 12 11 11 10 12 11 11
21 1 7 15 16 18 15 23 12 21 23 4 7 13 15 13 6 5 7 8 10 12 14 15 17 18 19 19 19 20 21 23 22 20 20 20 20 19 17 15 13 12 12 12 11 10 11 11 10
4 7 13 14 17 9 13 15 20 14 11 6 11 15 15 11 3 4 6 10 14 16 16 18 19 21 20 20 21 22 22 21 21 21 20 19 17 16 14 13 13 12 11 10 10 9 10 12 9
9 17 4 5 16 13 10 4 11 18 10 11 15 17 16 10 5 3 7 11 14 16 18 19 20 21 21 21 21 21 22 21 20 19 17 16 15 14 13 13 12 11 10 10 10 11 10 8 11

GFSSGP_925_spd_033.txt.gz
Wind_Speed
12 7 9 10 7 8 17 19 15 12 10 4 4 6 9 8 3 4 16 13 21 23 24 33 32 29 27 24 23 22 22 22 21 20 19 17 16 15 13 12 11 10 8 7 6 6 5 3 2
11 9 11 9 9 14 14 19 16 8 14 12 10 10 9 12 12 11 17 11 21 22 24 28 32 30 28 25 24 23 23 22 22 22 20 18 17 15 14 13 11 10 9 8 8 7 6 5 4
8 11 9 9 14 17 15 20 10 12 7 8 10 7 7 5 6 8 23 18 20 21 23 27 33 31 30 27 26 25 24 23 23 23 21 20 18 16 14 13 12 11 11 10 9 8 6 5 4
9 9 8 12 20 23 26 2 12 8 10 13 11 9 5 4 8 14 21 20 20 20 20 25 33 32 31 29 28 26 26 26 25 24 22 21 19 17 16 14 13 12 11 10 10 9 7 6 4
11 8 13 17 21 25 18 5 4 9 12 14 12 11 11 8 4 27 23 21 20 20 20 22 27 34 32 30 28 28 27 26 26 24 23 21 20 19 17 16 15 13 12 11 10 9 8 6 6
9 11 13 16 22 20 20 9 12 15 12 13 17 16 14 15 14 24 23 21 19 20 19 18 24 34 33 31 30 30 28 27 26 25 24 23 22 21 19 17 16 15 14 13 11 9 8 7 7
17 14 19 22 20 21 20 15 15 16 17 16 15 18 9 13 20 27 22 20 19 18 18 18 19 32 34 31 30 30 30 29 28 27 26 25 24 22 21 19 18 17 16 14 12 11 9 9 8
15 14 25 21 19 23 13 16 17 18 18 9 5 14 12 16 21 23 21 18 17 18 17 17 16 24 25 26 31 30 30 30 29 28 27 26 24 24 22 21 20 18 18 16 14 12 11 10 10
20 17 19 24 23 19 12 19 16 17 19 7 11 4 9 17 17 20 19 16 16 15 13 14 16 20 23 24 23 31 31 30 30 29 29 28 23 22 22 22 20 21 20 18 17 14 12 12 12
22 17 28 23 22 17 13 15 18 22 14 15 16 9 5 8 18 18 18 16 16 15 14 14 14 18 20 21 21 23 24 25 27 26 26 28 26 25 23 23 25 22 21 20 20 19 18 13 12
27 28 26 25 24 21 14 20 21 23 18 21 18 13 8 4 8 15 22 21 24 20 16 14 17 17 19 19 20 19 21 25 28 30 31 29 28 27 26 24 24 21 23 20 19 16 15 13 14
27 33 30 30 28 17 18 20 25 23 20 21 21 19 20 11 11 9 10 13 10 8 10 10 11 16 18 18 20 21 21 22 25 28 32 31 30 28 27 27 24 26 24 24 21 19 21 18 19
32 31 30 28 22 26 20 23 25 27 23 21 22 13 9 12 13 15 15 16 18 15 14 15 12 17 18 21 20 21 23 23 23 25 30 33 29 29 29 27 27 26 26 25 24 21 21 20 15
26 30 33 29 27 26 28 27 22 29 26 25 24 23 20 19 18 21 19 18 18 19 18 15 15 17 20 20 23 22 24 21 24 25 28 36 34 30 29 30 29 26 26 26 26 21 19 17 18
25 28 28 28 29 33 25 28 30 32 27 28 28 25 22 23 24 19 20 18 21 20 19 16 14 14 21 25 21 20 20 20 23 25 27 28 36 32 31 28 28 28 25 25 20 22 18 17 13
19 21 26 35 28 28 27 34 34 29 29 31 29 27 23 26 25 29 25 25 25 22 19 17 18 15 23 21 19 19 21 21 25 24 25 29 31 34 29 29 27 27 26 24 24 21 21 18 19
21 26 30 32 29 29 28 35 34 33 30 27 29 28 26 27 27 29 30 30 19 16 14 18 18 18 17 17 17 21 23 23 26 25 24 26 31 30 31 28 26 26 25 25 24 24 20 19 16
24 26 29 30 27 29 31 34 33 30 30 26 32 31 26 29 27 27 23 15 17 18 18 19 21 20 18 19 18 20 21 23 25 24 24 24 26 28 28 27 26 25 26 25 24 22 19 16 16
24 28 32 29 25 28 29 31 36 30 27 27 26 23 30 30 28 27 19 21 22 22 20 19 21 23 20 19 19 21 24 24 22 21 22 22 23 25 27 27 26 24 26 26 24 19 18 17 14
24 26 30 29 30 23 22 27 34 27 29 29 28 28 28 25 20 21 26 26 26 24 23 23 24 23 22 20 22 23 18 20 21 19 19 21 22 24 25 26 23 26 25 23 20 21 17 18 11
20 23 25 27 24 28 25 29 30 26 27 25 28 29 28 27 26 23 22 25 26 24 24 26 26 26 25 25 20 16 16 14 16 18 18 20 21 22 24 25 21 22 24 23 20 21 22 14 11
21 20 21 26 21 21 28 21 27 26 25 27 27 23 24 24 24 24 25 22 27 29 31 29 28 26 24 21 22 20 17 17 20 18 18 18 20 22 23 22 21 19 23 19 23 23 21 14 12
22 19 21 23 25 24 30 20 22 22 27 27 27 29 29 28 27 27 26 24 29 30 25 24 23 23 23 21 25 22 22 19 14 17 17 18 19 21 21 19 19 19 20 18 21 19 17 15 12
15 17 20 21 20 22 26 26 24 22 23 21 20 21 23 23 22 23 20 25 21 23 20 20 21 23 22 23 22 22 20 19 17 18 18 17 18 18 21 20 20 19 21 21 19 17 12 10 10
16 14 12 16 16 19 23 25 21 24 29 25 22 24 11 15 12 14 17 17 17 18 17 19 21 21 21 20 21 20 17 16 17 18 18 18 18 19 22 21 20 20 16 16 15 12 9 10 10
17 17 13 17 16 19 26 26 21 24 24 16 19 15 14 11 14 15 15 15 13 13 16 15 13 17 16 17 18 18 19 18 17 16 19 20 20 20 22 21 20 17 15 14 13 11 10 10 11
18 17 21 21 25 18 20 29 31 30 19 14 16 10 7 11 13 15 14 11 12 13 9 13 13 14 16 17 18 19 19 19 18 21 23 21 19 22 22 19 17 16 15 13 11 11 11 12 12
16 15 13 6 19 23 18 22 19 30 19 15 10 3 9 7 12 14 10 10 8 11 14 14 16 18 19 20 20 19 18 20 23 21 23 21 20 21 19 17 15 14 12 11 11 11 11 11 10
1 6 8 8 12 12 16 12 15 27 29 19 5 2 4 7 2 7 9 9 15 17 18 19 20 21 21 20 23 24 25 26 21 20 21 20 19 18 16 15 13 12 12 12 11 7 9 12 11
13 13 19 4 12 18 11 17 16 13 21 13 4 4 6 5 4 2 8 13 14 18 19 20 21 22 22 24 24 24 24 23 22 21 20 18 17 15 13 13 12 12 12 11 10 11 12 12 12

GFSSGP_925_spd_036.txt.gz
Wind_Speed
10 9 10 13 6 7 16 20 21 23 16 10 9 4 5 14 15 9 23 30 32 28 35 30 27 26 22 20 19 19 18 17 15 13 13 11 11 10 9 8 7 6 5 4 4 3 3 3 3
7 10 12 6 8 13 14 19 23 22 10 7 4 1 7 8 22 14 16 30 26 27 32 31 28 25 24 22 20 20 19 18 17 15 14 13 12 11 9 8 7 7 6 5 5 5 4 3 3
8 13 4 5 10 16 17 20 17 13 5 5 7 8 7 5 15 14 24 31 27 25 30 29 28 26 25 23 21 20 19 18 17 16 16 15 13 12 10 9 8 7 7 6 5 5 4 3 2
9 8 7 9 17 21 26 24 29 12 14 8 10 8 4 13 15 17 30 29 26 23 26 28 29 27 25 24 23 21 21 21 19 18 18 16 15 14 12 11 10 9 8 8 7 6 4 4 3
15 6 11 15 20 21 22 22 23 11 6 12 15 13 12 6 22 31 31 29 28 25 22 25 30 28 27 25 23 22 22 22 21 21 19 18 17 16 15 13 12 11 10 10 9 8 6 5 4
8 10 12 13 20 22 21 23 19 7 11 10 14 14 12 15 33 27 28 28 26 26 24 23 26 29 28 27 25 25 23 23 23 22 21 21 20 19 17 15 14 13 12 12 11 9 8 7 6
15 13 18 21 20 19 21 20 20 10 13 19 15 18 15 20 29 28 26 26 25 25 24 20 25 30 29 28 28 26 26 25 24 24 23 22 22 21 20 18 16 16 15 14 13 11 11 10 9
13 12 23 21 18 23 21 17 21 16 15 18 18 2 10 10 20 29 28 27 29 27 24 18 20 28 31 30 29 28 27 27 26 25 25 24 24 23 22 20 19 18 18 18 16 15 15 13 12
21 15 18 24 22 20 18 19 15 16 16 20 14 5 10 16 24 26 27 27 28 31 29 23 20 20 27 24 27 30 29 29 28 28 28 27 27 26 24 23 22 22 21 20 19 18 16 14 13
19 18 29 24 19 20 20 19 20 17 19 18 11 7 6 12 16 19 18 17 20 26 31 30 26 21 22 22 23 25 32 32 32 33 32 32 30 26 25 24 24 23 24 23 22 20 18 18 17
22 27 26 27 25 21 20 23 17 15 19 21 18 14 8 18 20 20 15 17 18 23 24 30 30 25 23 23 27 28 27 30 34 35 33 32 31 28 26 24 25 28 26 25 25 24 23 22 19
26 30 28 29 28 26 26 23 25 20 22 24 18 16 17 12 13 15 15 15 4 14 7 22 31 30 27 24 25 28 27 27 30 33 34 31 30 27 28 28 28 32 28 29 24 24 23 22 21
30 29 29 27 25 25 27 29 28 19 22 23 22 17 16 15 12 12 11 6 4 3 7 5 24 27 29 27 21 25 25 27 28 28 30 35 30 31 31 28 29 30 28 28 27 23 23 22 22
24 29 29 28 26 22 27 28 24 25 21 23 23 20 8 8 12 11 11 10 11 10 8 10 6 22 23 23 28 21 29 26 27 29 29 34 35 31 31 33 31 27 31 28 29 27 27 26 22
22 27 25 28 27 28 24 26 32 24 22 23 23 23 20 16 26 21 17 19 13 13 13 14 14 13 21 23 24 30 22 30 25 29 29 32 37 36 35 29 32 35 27 29 28 29 25 25 24
22 20 21 29 27 29 20 30 28 27 22 24 24 22 22 20 21 19 21 26 19 21 24 24 19 17 22 26 25 25 30 26 26 30 26 33 35 37 33 30 29 29 33 29 25 30 26 26 22
17 21 24 25 25 27 26 31 27 25 23 20 21 21 22 21 19 24 28 27 27 28 30 19 15 16 13 24 24 24 25 26 27 24 27 27 33 37 35 30 28 29 28 28 32 26 24 22 24
18 21 23 27 26 25 26 29 28 25 23 25 23 22 22 22 25 22 23 28 28 16 12 12 14 13 14 15 24 25 26 28 29 29 27 23 30 33 38 29 29 24 31 29 25 29 28 25 18
19 22 27 28 27 24 24 25 28 26 25 25 21 19 24 24 22 27 24 33 21 17 16 16 20 23 22 21 23 23 24 27 27 25 25 25 24 31 32 30 25 32 25 29 29 25 26 24 21
20 20 25 25 26 23 27 28 27 22 24 22 22 23 21 23 22 19 29 27 15 16 18 21 22 23 26 28 30 27 24 25 26 26 24 23 21 28 28 26 29 25 24 27 25 27 22 18 19
18 21 21 24 22 24 25 26 28 27 20 17 20 19 23 22 21 17 12 13 17 20 21 24 28 29 31 32 28 28 27 25 20 20 23 23 23 23 26 27 25 23 29 24 29 23 24 16 17
21 21 21 21 19 17 20 18 22 21 23 21 22 20 14 13 16 17 17 14 15 15 16 19 23 31 36 34 28 27 22 17 20 16 21 20 21 21 24 23 29 21 29 22 26 22 22 20 16
23 21 20 22 20 22 23 15 19 22 22 22 22 21 17 16 17 19 16 14 20 25 29 32 37 37 35 32 33 28 21 20 18 20 19 21 21 21 21 24 25 20 25 28 24 23 26 24 17
28 20 22 18 17 17 24 19 21 19 23 24 18 21 23 24 25 22 19 25 26 29 28 30 33 34 32 30 30 28 23 24 18 16 20 17 19 19 23 24 24 20 22 19 23 26 24 20 16
27 16 12 15 14 17 22 21 19 21 24 24 22 18 20 16 15 18 21 19 20 22 24 21 19 21 26 29 27 25 32 21 20 21 19 18 19 20 25 25 22 20 23 18 21 21 18 15 13
26 9 9 19 16 17 20 15 17 19 22 25 23 24 16 14 15 9 6 6 9 18 22 18 16 20 23 22 24 23 23 18 15 20 20 19 19 21 23 24 23 22 21 17 18 15 13 13 12
19 11 20 12 19 14 19 27 21 22 23 25 24 23 13 13 10 8 12 10 12 16 20 20 19 21 20 20 18 20 21 19 21 19 20 20 22 23 25 23 23 20 17 17 16 12 13 12 11
15 9 12 5 12 17 17 22 12 20 19 24 24 19 18 6 9 13 12 12 12 9 14 11 12 14 13 16 18 19 21 18 23 21 24 23 22 23 25 20 19 18 16 14 12 8 10 12 13
12 3 3 11 6 5 8 13 12 17 22 21 22 15 7 11 10 14 16 12 14 12 15 15 15 17 19 20 20 19 19 24 24 23 22 24 24 23 21 18 17 15 12 10 10 10 14 13 11
17 14 11 6 10 9 12 21 15 23 28 29 23 7 6 8 4 6 8 9 11 17 20 19 21 21 23 26 26 27 26 27 27 25 23 21 22 20 19 17 13 12 12 11 10 9 10 11 12

GFSSGP_925_spd_042.txt.gz
Wind_Speed
11 5 4 3 3 4 4 7 5 10 10 4 9 8 10 6 7 5 18 31 38 45 40 37 35 34 33 31 30 28 25 23 20 20 19 17 16 15 14 12 11 10 10 9 9 8 8 8 7
7 2 1 2 3 0 6 6 19 4 10 12 17 7 4 3 4 10 22 33 46 47 42 38 36 36 34 32 30 28 27 25 23 20 19 18 16 15 13 12 10 9 9 8 7 8 8 8 7
5 2 3 3 4 6 6 5 5 6 13 13 9 7 8 6 2 20 17 42 52 48 44 40 38 37 36 33 30 28 27 25 24 22 19 18 17 16 14 13 12 11 9 9 9 9 8 8 7
2 4 3 2 11 7 9 9 9 14 17 15 6 6 1 14 20 23 43 51 53 50 46 43 40 39 37 35 33 29 27 26 24 23 20 19 17 16 15 14 13 12 11 11 11 10 10 9 7
2 2 1 3 9 7 10 7 8 14 8 16 13 5 8 1 18 40 48 53 54 50 46 44 42 39 37 36 34 31 29 27 25 23 21 19 17 16 16 14 14 13 12 12 12 11 11 10 9
1 2 2 7 14 9 7 10 6 10 12 16 8 3 2 5 27 41 46 50 50 51 47 44 41 38 36 34 33 31 29 28 26 24 23 21 19 18 18 16 15 15 14 13 12 11 11 10 10
4 2 5 5 12 14 13 5 5 5 6 11 6 5 2 7 8 15 32 43 47 48 47 44 41 38 34 33 32 31 29 28 27 25 24 23 22 21 20 18 17 17 16 16 14 13 12 12 11
4 4 4 6 11 12 8 4 4 4 17 8 5 5 6 6 16 13 18 29 31 40 44 45 42 39 37 34 31 30 29 28 27 25 24 24 23 23 22 21 20 19 19 19 17 16 15 14 13
1 2 8 9 11 13 12 7 9 10 7 10 13 3 3 19 32 28 22 22 24 30 36 40 41 40 38 35 33 30 28 27 26 25 25 25 26 26 25 23 22 22 21 21 19 18 17 15 15
5 5 8 6 9 13 18 19 18 13 16 7 18 14 23 22 27 20 18 16 25 26 31 36 39 39 37 35 33 32 31 30 30 29 29 30 29 27 26 25 24 23 23 23 22 21 20 18 19
5 14 10 8 7 9 16 23 15 12 15 11 8 17 7 2 15 18 15 28 24 24 28 32 35 36 36 35 34 34 33 33 33 32 32 32 30 28 28 27 26 26 26 26 25 24 24 23 22
6 7 8 10 14 15 21 21 24 17 19 16 5 9 6 6 10 13 14 24 29 27 30 26 28 27 31 34 37 36 36 37 36 35 34 33 32 31 31 30 30 29 29 30 28 28 27 26 25
6 9 8 10 12 17 17 23 24 23 19 16 13 7 7 11 12 6 4 27 27 26 27 26 24 18 19 30 36 36 39 40 37 35 36 35 35 35 34 33 32 33 31 33 31 31 30 29 27
5 6 8 7 9 6 13 21 19 31 16 17 20 4 5 5 10 11 17 19 26 30 31 32 30 15 18 35 39 33 36 36 34 34 35 37 36 36 37 36 35 35 33 34 33 33 32 31 30
7 8 10 6 4 4 5 15 20 21 11 15 20 14 7 8 7 16 28 32 32 33 34 31 29 31 41 51 47 31 34 36 33 33 34 33 32 33 34 34 35 37 35 36 34 33 32 32 31
6 4 3 4 7 5 8 24 21 14 9 16 14 20 8 9 9 14 22 20 28 37 38 36 41 48 53 53 46 34 36 33 33 33 34 32 32 31 31 32 33 33 34 36 35 34 34 32 30
3 5 7 7 7 6 6 16 11 7 10 17 17 15 18 8 9 19 17 24 32 29 44 45 48 50 59 53 44 41 38 36 36 34 33 33 31 30 32 34 35 31 31 36 37 36 34 31 29
6 5 6 4 5 2 10 15 7 7 8 10 14 16 17 17 11 19 27 27 21 26 35 32 53 50 44 44 39 41 40 38 36 34 34 35 31 30 32 36 36 33 32 35 34 35 34 31 29
9 12 14 10 7 2 9 14 12 6 7 9 10 13 15 17 21 16 25 25 27 31 22 25 37 46 42 41 36 33 38 43 40 38 37 35 32 31 34 37 36 35 35 36 36 34 33 31 27
6 6 6 4 6 8 7 17 15 7 7 9 11 11 13 13 15 20 20 25 28 34 37 31 29 42 44 43 42 32 38 42 39 36 33 31 33 34 35 37 39 37 34 35 34 35 23 26 27
7 6 12 15 12 4 5 15 16 10 5 7 10 10 10 11 14 18 18 19 30 29 32 32 35 43 48 46 38 28 23 18 21 29 30 30 31 34 35 37 38 35 36 36 38 35 32 21 25
5 9 11 13 8 4 3 15 15 11 12 6 11 10 10 13 14 13 15 13 21 31 32 29 33 43 47 45 39 35 30 22 30 31 29 24 26 25 26 34 35 35 35 35 33 31 32 26 17
6 7 7 7 10 4 12 5 15 5 13 17 14 11 10 10 9 12 15 18 29 27 25 27 32 42 40 36 36 39 31 33 33 30 25 26 30 27 27 32 32 31 31 30 25 24 25 28 21
4 4 8 5 3 10 12 6 17 8 8 13 11 10 14 12 13 10 15 24 26 27 25 27 37 43 43 41 40 39 37 35 30 26 23 23 23 26 27 29 27 26 28 27 23 23 24 23 22
4 5 5 4 1 10 7 8 19 5 10 5 5 10 13 15 15 17 15 10 19 25 28 27 35 38 42 42 42 42 41 39 34 32 25 21 21 25 25 25 24 26 26 21 20 20 21 22 20
5 5 4 5 2 7 9 6 8 1 4 4 4 7 8 14 13 16 18 17 17 25 30 34 33 37 42 44 44 43 43 38 35 30 23 21 28 28 26 25 25 22 21 18 17 15 18 18 17
4 5 8 6 11 6 4 7 8 5 4 7 10 10 12 10 14 16 19 17 23 28 30 33 34 35 38 39 40 40 40 36 31 27 21 25 26 28 27 24 21 19 17 16 14 14 16 15 15
8 3 2 1 3 5 5 7 7 7 9 12 13 14 16 13 12 15 15 18 28 33 31 32 33 33 34 35 33 32 28 24 25 23 23 25 24 26 23 23 21 21 17 17 14 16 16 15 13
5 3 2 3 5 3 5 5 5 6 8 10 13 15 14 14 11 12 14 18 25 29 32 27 27 25 23 22 21 22 22 22 22 23 24 26 26 23 24 24 20 18 16 16 18 18 16 15 15
12 9 5 4 4 4 2 9 3 8 11 7 14 16 16 15 9 11 13 14 19 22 31 22 19 19 23 26 27 25 23 23 22 24 25 24 23 21 22 19 18 19 19 21 18 16 16 16 19

GFSSGP_925_spd_045.txt.gz
Wind_Speed
10 5 3 4 3 4 4 7 3 7 8 1 1 3 7 17 8 6 6 38 41 48 44 41 38 36 34 34 32 31 29 27 25 24 23 22 22 21 20 19 17 15 13 11 10 9 8 8 7
7 3 3 2 3 0 5 5 4 6 6 10 8 5 5 8 6 4 17 38 46 53 48 45 41 38 36 36 35 33 31 29 28 25 24 22 21 20 19 17 16 14 12 11 10 9 9 8 7
3 3 3 3 3 6 5 4 4 5 9 6 6 5 6 5 5 15 9 45 50 53 52 47 43 40 37 36 35 33 31 29 28 26 24 22 20 19 17 16 14 13 12 11 10 9 9 8 7
3 4 4 2 11 6 5 3 6 11 10 1 3 12 8 4 3 20 32 45 55 53 50 49 45 42 39 37 35 33 31 29 27 25 23 21 20 18 17 15 14 12 11 11 10 10 9 8 7
4 2 1 3 9 5 4 4 5 8 6 8 4 9 5 9 5 19 39 48 55 51 49 47 45 42 40 38 36 34 32 29 27 26 24 22 20 18 17 15 14 13 12 11 11 10 10 9 8
2 3 2 7 13 4 3 4 2 5 6 9 7 15 2 3 6 16 30 45 51 53 49 47 44 42 40 38 37 35 34 31 28 26 24 22 20 19 18 17 15 14 13 12 11 11 11 10 9
5 4 5 5 9 7 1 1 3 4 7 7 14 4 3 4 12 16 20 24 30 39 47 47 44 42 40 39 37 36 34 32 29 27 25 23 21 20 19 17 16 15 14 13 12 11 11 11 10
3 4 3 5 11 5 1 6 5 5 7 9 5 7 7 4 20 17 16 20 24 28 40 44 43 41 40 39 37 35 34 31 30 28 26 24 22 21 20 19 17 16 16 15 14 14 13 13 12
2 2 6 10 8 3 5 7 2 5 6 7 5 4 16 18 27 22 16 16 18 25 35 40 40 39 37 36 35 34 32 31 29 28 27 26 26 25 23 21 19 18 18 17 17 16 15 14 14
4 4 8 3 9 8 12 12 15 6 9 10 8 14 20 2 9 25 19 18 23 27 35 40 41 40 37 34 34 34 33 32 31 30 30 30 28 26 25 23 22 21 21 20 19 19 18 17 18
3 6 3 3 2 5 7 15 11 9 15 1 12 12 14 5 8 10 16 34 40 40 34 40 42 40 38 35 33 32 33 33 33 33 32 32 29 27 27 25 25 24 24 23 23 23 23 22 21
4 4 2 3 4 5 13 14 18 16 26 8 9 9 8 10 9 7 6 3 22 33 36 39 38 39 39 37 34 33 33 33 34 34 34 33 30 30 29 28 27 27 27 26 26 26 26 25 24
4 3 5 6 8 7 11 15 17 26 25 7 10 7 9 12 8 10 12 13 14 22 34 38 39 38 35 35 32 32 34 34 36 35 35 34 33 33 31 31 29 29 29 29 29 29 28 28 27
2 3 7 3 6 5 9 13 5 25 9 8 9 9 9 9 10 6 10 17 23 24 29 34 35 38 37 35 34 34 37 35 35 36 37 35 34 35 33 32 32 32 32 31 31 31 30 30 29
3 6 5 5 5 6 6 16 23 20 2 11 5 5 8 11 10 10 22 21 29 35 37 38 38 37 38 32 34 36 43 29 35 39 41 39 36 38 34 34 33 34 34 32 31 32 30 29 28
5 5 4 5 4 6 9 24 10 7 5 12 16 5 7 9 11 18 23 29 29 27 25 37 41 43 38 29 28 29 41 32 35 37 41 36 36 36 33 35 33 32 31 31 31 32 30 29 28
5 1 2 6 4 5 8 6 4 9 6 7 10 6 5 7 9 17 20 27 31 29 26 30 30 37 39 35 39 46 36 38 42 40 42 38 36 35 34 34 32 30 29 28 29 32 29 29 27
5 3 4 5 7 3 11 14 7 6 6 8 7 10 6 8 8 15 22 26 28 35 36 36 34 37 36 33 37 39 40 41 41 44 45 39 35 33 32 34 32 30 29 28 30 31 27 28 27
4 4 6 8 10 6 10 16 11 8 5 8 9 8 8 7 9 16 19 24 31 29 31 33 37 34 34 30 23 26 33 42 38 46 45 35 32 31 31 34 31 32 31 31 30 28 27 27 24
1 2 4 5 9 9 12 19 13 4 6 6 7 9 8 8 9 8 15 17 22 34 30 33 37 38 39 39 36 29 26 29 36 38 39 31 30 31 33 32 32 34 31 29 28 28 23 23 22
2 1 4 6 6 5 9 18 8 5 4 6 6 8 8 8 14 12 9 15 21 23 31 39 39 40 42 45 40 33 33 28 28 30 35 37 36 34 36 35 35 35 30 30 30 29 29 20 21
2 3 4 6 6 3 3 14 15 8 8 5 8 8 11 12 11 12 13 10 23 25 29 33 35 39 42 46 37 39 39 32 31 34 40 38 38 35 36 36 36 36 33 30 28 28 30 23 17
6 2 1 5 9 3 6 5 14 3 14 10 10 7 7 8 8 10 13 18 27 30 30 29 39 37 34 33 41 35 29 30 29 34 31 32 26 28 29 28 30 32 33 31 27 25 26 26 20
0 2 4 4 2 3 7 10 23 14 11 6 1 5 8 8 9 9 13 19 21 29 28 28 29 36 33 33 37 40 33 35 33 30 30 29 27 24 23 24 25 27 29 28 22 21 23 23 27
4 5 4 5 3 5 5 5 19 9 7 2 5 9 8 8 8 9 9 11 18 21 26 28 24 27 34 35 37 42 43 42 40 38 35 31 26 23 23 22 21 25 25 20 18 18 17 19 22
6 7 4 5 4 9 11 6 7 2 4 5 6 8 9 10 8 10 10 9 14 20 23 26 27 28 31 36 40 44 45 42 40 37 36 32 26 23 22 18 21 23 20 18 18 14 17 18 20
1 4 6 4 3 3 5 6 8 7 5 4 7 6 9 11 11 11 14 9 15 18 23 25 26 27 31 37 39 42 43 39 38 37 33 27 23 23 20 19 22 21 19 18 15 15 16 17 17
7 5 4 1 4 7 6 6 10 6 9 8 10 9 11 12 12 12 12 10 17 20 25 29 25 25 31 36 39 42 41 38 36 32 27 23 23 21 19 22 22 20 17 17 16 16 15 17 16
3 3 1 3 4 4 8 8 5 7 8 10 13 9 11 14 15 15 14 16 19 23 26 28 25 26 23 33 38 38 37 34 29 27 23 26 23 19 25 25 22 18 19 19 16 17 17 18 17
12 11 7 4 5 4 5 18 5 9 9 8 14 13 14 14 13 15 15 13 17 17 23 23 24 22 21 29 32 31 29 27 25 22 25 23 21 23 27 25 21 21 21 17 18 18 17 18 17

GFSSGP_925_spd_048.txt.gz
Wind_Speed
11 3 2 3 3 4 2 6 3 4 6 3 2 4 7 5 6 6 8 34 41 41 45 44 44 40 36 34 33 33 32 30 28 27 26 25 24 23 21 18 16 15 13 12 11 10 8 7 7
7 1 3 2 4 1 4 4 5 6 3 8 7 4 5 13 8 7 6 33 47 48 48 47 46 43 39 37 35 33 32 30 29 27 26 24 23 22 20 19 17 15 13 12 11 10 9 8 8
4 2 3 3 3 6 5 5 4 3 8 4 4 6 4 5 4 4 10 40 45 50 48 47 47 45 42 39 37 35 32 31 29 28 27 24 23 22 21 19 17 14 12 11 10 9 9 9 8
1 3 4 4 9 4 4 2 4 7 5 2 4 9 6 5 4 5 9 42 48 52 49 47 47 46 44 41 38 35 33 31 29 28 26 25 24 22 20 18 16 14 12 11 10 9 8 8 8
2 2 2 2 5 3 3 5 3 6 4 7 4 6 4 4 11 6 27 37 47 50 48 47 46 44 44 42 40 37 34 32 31 29 27 25 24 22 20 18 15 14 13 11 10 9 9 8 8
2 3 2 5 4 2 3 6 3 3 2 8 9 7 3 13 8 11 34 34 42 46 46 45 44 43 42 42 40 38 36 33 31 30 28 25 23 22 20 18 16 14 13 12 12 11 9 9 8
4 3 5 5 1 4 2 3 2 4 4 4 7 5 6 10 7 10 26 30 40 42 42 42 42 42 40 39 38 37 35 34 32 30 28 26 24 22 21 19 17 16 14 12 12 12 11 10 9
4 4 3 5 5 4 3 4 4 4 4 8 4 6 8 17 10 16 21 25 29 36 39 40 38 40 41 39 37 36 34 33 31 30 28 26 24 23 21 19 17 16 15 14 13 12 11 11 11
3 1 4 5 4 2 5 5 2 3 4 5 3 2 6 6 7 14 17 19 23 29 35 39 38 40 40 39 37 35 33 32 30 28 27 25 25 24 22 20 18 17 16 14 15 14 13 13 12
3 4 7 3 0 4 11 5 8 4 7 3 6 8 14 2 5 2 7 16 25 30 35 39 40 41 40 38 36 35 33 32 31 30 29 28 28 26 24 21 20 19 17 16 16 16 15 15 15
2 4 2 0 1 2 5 17 2 6 11 1 9 15 13 7 8 6 6 15 32 41 37 41 41 42 41 39 36 34 33 31 31 30 29 28 27 24 24 23 23 22 20 21 20 20 20 19 18
1 3 3 2 6 5 5 9 11 13 11 6 7 11 6 9 9 7 10 16 17 29 39 38 43 42 40 38 36 34 33 31 30 30 28 29 27 25 26 25 25 24 22 23 23 23 22 21 21
3 1 3 6 6 4 7 10 16 18 10 11 10 10 11 9 9 11 13 15 23 23 27 38 40 41 41 38 36 35 33 33 32 31 30 31 28 28 28 28 27 26 24 26 25 24 24 23 23
2 2 6 5 7 4 7 11 10 1 8 8 8 7 9 10 10 4 10 13 20 28 36 37 38 41 41 40 38 38 35 34 34 35 34 32 33 31 31 32 31 29 27 27 27 25 26 25 24
2 4 6 5 5 6 7 13 12 12 5 8 8 9 9 10 12 10 13 15 23 30 33 34 41 45 42 42 40 39 37 38 37 37 36 36 36 34 34 35 33 33 27 29 28 26 26 27 25
3 4 4 5 2 5 6 7 4 6 4 7 6 7 8 9 9 22 24 21 18 26 27 32 38 41 42 43 42 42 43 42 36 35 38 36 38 36 35 35 35 33 27 28 28 28 27 28 25
5 0 1 7 1 4 2 5 3 6 5 6 5 2 5 8 9 17 22 23 21 21 25 25 29 33 38 41 35 39 32 39 31 40 31 30 35 32 32 32 34 30 26 28 26 27 26 28 26
3 3 4 4 5 5 9 6 8 7 7 8 7 6 5 6 8 16 18 20 23 22 25 27 26 32 34 35 31 30 32 36 33 36 32 39 38 32 28 31 31 26 26 26 26 27 25 26 23
2 3 4 4 4 6 9 10 9 9 7 7 7 7 6 6 7 13 16 18 19 20 21 26 33 33 34 32 28 29 32 35 35 33 34 36 35 30 28 28 28 27 30 27 27 26 25 25 20
3 2 3 5 6 5 8 18 12 7 6 6 5 7 8 6 5 8 16 19 18 24 21 23 28 37 39 38 40 34 27 31 37 33 34 34 32 28 26 28 29 29 30 28 26 26 20 22 19
1 3 2 5 5 5 7 12 5 4 4 5 6 6 6 8 8 7 8 17 18 20 22 21 25 29 34 37 38 29 30 27 28 32 37 38 32 30 27 29 29 30 29 29 28 28 27 17 19
3 4 3 4 6 4 5 9 5 6 11 7 7 7 8 8 5 4 6 10 19 20 21 21 19 24 33 36 33 33 27 21 27 35 36 40 32 28 32 33 30 30 29 29 28 26 26 22 17
6 1 3 2 4 3 3 3 2 8 10 12 16 17 8 8 6 8 7 12 22 20 21 20 18 21 24 32 37 34 32 30 33 33 34 31 27 33 34 32 31 31 31 30 28 25 24 25 20
3 2 3 3 2 1 4 6 6 3 4 6 5 6 6 7 8 8 12 13 16 21 19 18 18 16 19 26 28 33 34 32 30 32 32 31 34 31 30 30 28 29 29 29 27 25 23 23 26
4 5 4 4 2 5 4 0 14 10 19 15 12 9 8 7 8 8 9 9 12 20 24 21 17 22 17 19 22 27 38 35 39 36 37 35 32 29 30 27 26 26 26 28 25 23 22 22 23
6 7 4 5 3 9 4 7 8 5 6 6 6 7 8 9 7 8 9 8 18 17 24 25 26 26 23 19 19 24 36 36 37 37 40 39 35 35 27 23 22 22 22 23 22 21 20 21 20
3 4 4 3 2 2 5 6 13 15 13 8 9 8 10 9 9 9 9 11 18 22 23 28 29 29 25 24 21 24 30 36 41 43 39 38 32 23 23 21 19 19 19 21 21 21 19 18 18
5 5 1 2 4 5 4 10 11 7 6 8 10 10 8 7 11 13 8 10 20 24 29 28 28 28 26 25 25 26 29 33 37 37 34 31 25 21 23 21 19 19 21 21 21 18 16 17 17
1 2 3 3 4 3 7 9 6 9 10 9 11 10 8 10 15 15 15 15 21 24 27 30 28 27 25 25 27 27 30 33 34 36 34 27 23 22 23 21 21 24 24 22 19 18 19 17 17
5 5 7 3 4 4 5 19 8 7 9 6 12 10 11 13 15 15 16 13 17 19 23 25 28 26 27 27 27 28 30 30 29 31 28 24 22 24 22 22 26 26 23 21 21 22 18 18 19